[[{"header":{"parameterUnit":"m.s-1","parameterCategory":1,"la1":30.2991,"la2":30.254,"lo1":-89.0895,"lo2":-89.0444,"dy":0.0017,"dx":0.0017,"nx":28,"ny":28,"refTime":"2024-10-13T21:00:00:Z","depth":0,"parameterNumber":2,"parameterNumberName":"U-component_of_WINDS"},"data":[0,0,0,0,0,0,0,0,0,0,0,0,0,0,0,0,0,0,0,0,0,0,0,0,0,0,0,0,0,0,0,0,0,0,0,0,0,0,0,0,0,0,0,0,0,0,0,0,0,0,0,0,0,0,0,0,0,0,-3.4491,-3.4493,0,-3.4668,-3.467,-3.4672,-3.4741,-3.4741,-3.474,-3.474,-3.491,-3.4915,-3.492,0,0,0,0,0,0,0,0,0,0,0,0,0,-3.4206,-3.4211,-3.4491,-3.4493,-3.4496,-3.4667,-3.467,-3.4672,-3.4741,-3.4741,-3.474,-3.474,-3.4909,-3.4914,-3.492,0,0,0,0,0,0,0,0,0,0,0,0,0,-3.435,-3.4212,-3.4491,-3.4551,-3.4558,-3.4667,-3.467,-3.4673,-3.4741,-3.4741,-3.474,-3.4739,-3.4907,-3.4914,-3.4921,-3.498,0,0,-3.4944,-3.4947,0,0,0,0,0,0,0,0,-3.4342,-3.4361,-3.454,-3.4547,-3.4555,-3.4682,-3.4632,-3.4775,-3.4741,-3.4671,-3.474,-3.4739,-3.4834,-3.4847,-3.4882,-3.4988,-3.4995,-3.4944,-3.4949,-3.4952,-3.4954,0,0,0,0,0,0,0,-3.4332,-3.4354,-3.4561,-3.4542,-3.4552,-3.4567,-3.4586,-3.4659,-3.4754,-3.4677,-3.4683,-3.4704,-3.4838,-3.4874,-3.4886,-3.4997,-3.4944,-3.4951,-3.4955,-3.4958,-3.5163,-3.5164,0,0,0,0,0,0,-3.4313,-3.4345,-3.4555,-3.4566,-3.4445,-3.4572,-3.4594,-3.4642,-3.4753,-3.477,-3.4704,-3.4706,-3.4862,-3.4877,-3.4892,-3.497,-3.4952,-3.4959,-3.4963,-3.5162,-3.5163,-3.5164,0,0,0,0,0,0,-3.4307,-3.4332,-3.4548,-3.4457,-3.4486,-3.4578,-3.463,-3.4646,-3.4682,-3.4774,-3.479,-3.4724,-3.4862,-3.4882,-3.4959,-3.4977,-3.4962,-3.4969,-3.5161,-3.5162,-3.5163,-3.5124,0,0,0,0,0,0,-3.4299,-3.4329,-3.4354,-3.4457,-3.4491,-3.4613,-3.4632,-3.4649,-3.4696,-3.47,-3.4797,-3.4812,-3.4863,-3.4947,-3.4966,-3.4986,-3.4975,-3.5159,-3.5161,-3.5163,-3.5124,-3.5124,-3.5124,0,0,0,0,0,-3.4288,-3.4333,-3.4355,-3.4379,-3.4524,-3.4614,-3.4633,-3.4694,-3.4697,-3.4722,-3.4781,-3.4809,-3.4972,-3.4955,-3.4976,-3.4999,-3.5158,-3.5161,-3.5163,-3.5124,-3.5124,-3.5124,0,0,0,0,0,0,-3.4224,-3.4347,-3.4373,-3.4453,-3.4523,-3.4626,-3.4659,-3.4692,-3.476,-3.4761,-3.483,-3.4851,-3.4923,-3.4969,-3.4947,-3.5063,-3.5067,-3.5074,-3.503,-3.5031,-3.5031,-3.5017,-3.4981,0,0,0,0,0,-3.422,-3.4286,-3.4389,-3.445,-3.4484,-3.4566,-3.4607,-3.4649,-3.4723,-3.4752,-3.4816,-3.4885,-3.4952,-3.4994,-3.506,-3.5132,-3.5153,-3.5158,-3.5158,-3.5157,-3.5162,-3.5204,-3.5208,-3.5171,-3.5171,-3.5171,0,0,-3.4211,-3.4286,-3.4323,-3.4439,-3.4498,-3.4563,-3.459,-3.4656,-3.4705,-3.4761,-3.4839,-3.4888,-3.4969,-3.5044,-3.508,-3.5085,-3.5177,-3.516,-3.5159,-3.5164,-3.5207,-3.521,-3.5213,-3.5173,-3.5173,-3.5172,0,0,-3.4227,-3.4291,-3.435,-3.4411,-3.4502,-3.4556,-3.457,-3.467,-3.4706,-3.4786,-3.4831,-3.4887,-3.5001,-3.5058,-3.5101,-3.5143,-3.5171,-3.5162,-3.5161,-3.5201,-3.5204,-3.5207,-3.5222,-3.5227,-3.5167,-3.5167,-3.5167,0,-3.4203,-3.4306,-3.4375,-3.4442,-3.4491,-3.4549,-3.4608,-3.4662,-3.4768,-3.48,-3.4805,-3.4951,-3.5009,-3.5099,-3.511,-3.5143,-3.516,-3.5151,-3.5199,-3.5203,-3.5206,-3.5221,-3.5227,-3.5165,-3.5165,-3.5165,-3.5166,0,-3.4272,-3.4343,-3.4379,-3.4486,-3.4539,-3.46,-3.4677,-3.4723,-3.476,-3.4813,-3.4894,-3.4967,-3.5051,-3.5075,-3.511,-3.517,-3.517,-3.5186,-3.5191,-3.5207,-3.5222,-3.5229,-3.5163,-3.5163,-3.5164,-3.5164,0,0,-3.4251,-3.4399,-3.441,-3.4461,-3.4567,-3.4621,-3.4686,-3.4771,-3.4809,-3.4881,-3.4936,-3.5033,-3.5049,-3.5098,-3.5141,-3.5177,-3.5206,-3.5188,-3.5191,-3.5189,-3.5277,-3.5264,-3.527,-3.5226,-3.5228,-3.5229,-3.527,0,-3.4282,-3.4404,-3.4469,-3.4562,-3.4628,-3.4686,-3.4742,-3.4812,-3.4864,-3.4926,-3.4982,-3.505,-3.5066,-3.5097,-3.5135,-3.5194,-3.5224,-3.5192,-3.5276,-3.5278,-3.5254,-3.5278,-3.5264,-3.53,-3.5277,-3.5278,-3.5279,0,-3.4334,-3.4411,-3.4511,-3.4613,-3.4643,-3.4692,-3.4777,-3.4836,-3.4917,-3.4952,-3.5009,-3.5052,-3.5121,-3.5122,-3.5217,-3.5194,-3.5232,-3.5267,-3.527,-3.5279,-3.5278,-3.5287,-3.5313,-3.5318,-3.5289,-3.5288,-3.5287,0,-3.4309,-3.4437,-3.4514,-3.4555,-3.4675,-3.4709,-3.476,-3.4841,-3.4888,-3.4961,-3.4993,-3.5071,-3.5114,-3.5173,-3.5236,-3.5231,-3.5324,-3.5331,-3.5354,-3.5352,-3.537,-3.5368,-3.5401,-3.5395,-3.5395,-3.5395,-3.5395,0,-3.4337,-3.4396,-3.4505,-3.4553,-3.4621,-3.4695,-3.4759,-3.4814,-3.4886,-3.4943,-3.4997,-3.5049,-3.5129,-3.5191,-3.524,-3.5311,-3.5329,-3.5359,-3.5371,-3.5354,-3.535,-3.5379,-3.5378,-3.5397,-3.5396,-3.5396,-3.5396,0,-3.432,-3.4396,-3.4484,-3.4593,-3.4621,-3.4666,-3.4758,-3.4805,-3.4861,-3.4933,-3.4954,-3.5041,-3.5117,-3.5186,-3.5285,-3.5319,-3.5391,-3.5406,-3.5364,-3.5371,-3.5391,-3.5388,-3.5443,-3.5454,-3.5441,-3.5441,-3.5441,0,-3.4333,-3.4381,-3.4496,-3.454,-3.4592,-3.4662,-3.4712,-3.4787,-3.4837,-3.4934,-3.4969,-3.505,-3.5118,-3.5236,-3.5306,-3.5383,-3.5401,-3.5415,-3.5412,-3.5394,-3.5401,-3.5397,-3.5402,-3.5413,-3.5413,-3.5413,-3.5413,0,-3.4347,-3.4384,-3.4456,-3.4543,-3.4603,-3.4673,-3.4745,-3.4777,-3.4865,-3.4918,-3.4999,-3.5052,-3.5156,-3.5235,-3.5321,-3.537,-3.5406,-3.5414,-3.5423,-3.5406,-3.538,-3.5394,-3.5362,-3.5412,-3.5412,-3.5412,-3.5412,-3.5412,-3.4346,-3.4392,-3.4481,-3.4561,-3.4624,-3.469,-3.4741,-3.4805,-3.4875,-3.4968,-3.5007,-3.5088,-3.5169,-3.5288,-3.5337,-3.5401,-3.5408,-3.5421,-3.5424,-3.5426,-3.5423,-3.5371,-3.5416,-3.5416,-3.5417,-3.5417,-3.5417,0,-3.4364,-3.4425,-3.4498,-3.4599,-3.4661,-3.4694,-3.4776,-3.4825,-3.4897,-3.4971,-3.5038,-3.5131,-3.5208,-3.5286,-3.5368,-3.5403,-3.5422,-3.5422,-3.542,-3.5431,-3.5412,-3.5396,-3.5406,-3.5406,-3.5406,-3.5406,-3.5406,-3.5406,-3.4381,-3.4461,-3.4507,-3.4618,-3.4678,-3.4762,-3.4806,-3.4867,-3.4927,-3.5029,-3.5095,-3.5147,-3.5222,-3.531,-3.5382,-3.5403,-3.543,-3.5426,-3.545,-3.5432,-3.5432,-3.5432,-3.5417,-3.5431,-3.5431,-3.5464,-3.5464,-3.5464]},{"header":{"parameterUnit":"m.s-1","parameterCategory":1,"la1":30.2991,"la2":30.254,"lo1":-89.0895,"lo2":-89.0444,"dy":0.0017,"dx":0.0017,"nx":28,"ny":28,"refTime":"2024-10-13T21:00:00:Z","depth":0,"parameterNumber":3,"parameterNumberName":"V-component_of_WINDS"},"data":[0,0,0,0,0,0,0,0,0,0,0,0,0,0,0,0,0,0,0,0,0,0,0,0,0,0,0,0,0,0,0,0,0,0,0,0,0,0,0,0,0,0,0,0,0,0,0,0,0,0,0,0,0,0,0,0,0,0,-1.845,-1.845,0,-1.844,-1.844,-1.844,-1.8441,-1.8442,-1.8442,-1.8442,-1.843,-1.843,-1.8429,0,0,0,0,0,0,0,0,0,0,0,0,0,-1.8467,-1.8467,-1.845,-1.845,-1.845,-1.844,-1.844,-1.844,-1.8441,-1.8442,-1.8442,-1.8442,-1.843,-1.843,-1.8429,0,0,0,0,0,0,0,0,0,0,0,0,0,-1.8459,-1.8467,-1.845,-1.845,-1.8449,-1.844,-1.844,-1.844,-1.8441,-1.8442,-1.8442,-1.8442,-1.843,-1.843,-1.8429,-1.842,0,0,-1.8427,-1.8427,0,0,0,0,0,0,0,0,-1.8459,-1.8458,-1.845,-1.845,-1.8449,-1.8442,-1.8442,-1.8433,-1.8441,-1.8444,-1.8442,-1.8442,-1.8434,-1.8433,-1.843,-1.8419,-1.8418,-1.8427,-1.8426,-1.8426,-1.8426,0,0,0,0,0,0,0,-1.846,-1.8458,-1.8446,-1.845,-1.8449,-1.8449,-1.8448,-1.844,-1.8438,-1.8444,-1.8444,-1.8443,-1.8434,-1.8431,-1.843,-1.8418,-1.8427,-1.8426,-1.8426,-1.8426,-1.8395,-1.8394,0,0,0,0,0,0,-1.8461,-1.8459,-1.8447,-1.8446,-1.8455,-1.8448,-1.8447,-1.8444,-1.8438,-1.8437,-1.8443,-1.8443,-1.8432,-1.8431,-1.843,-1.8416,-1.8426,-1.8425,-1.8425,-1.8395,-1.8395,-1.8394,0,0,0,0,0,0,-1.8461,-1.846,-1.8447,-1.8452,-1.8451,-1.8447,-1.8444,-1.8444,-1.8441,-1.8437,-1.8436,-1.8441,-1.8432,-1.8431,-1.8421,-1.8416,-1.8425,-1.8424,-1.8396,-1.8395,-1.8394,-1.8389,0,0,0,0,0,0,-1.8462,-1.846,-1.8457,-1.8452,-1.845,-1.844,-1.8444,-1.8444,-1.844,-1.8441,-1.8435,-1.8434,-1.8432,-1.8422,-1.8421,-1.8415,-1.8424,-1.8396,-1.8395,-1.8395,-1.839,-1.8389,-1.8388,0,0,0,0,0,-1.8462,-1.8457,-1.8457,-1.8456,-1.8447,-1.844,-1.8438,-1.8437,-1.844,-1.8436,-1.8433,-1.8434,-1.8416,-1.8421,-1.8419,-1.8413,-1.8396,-1.8395,-1.8395,-1.8391,-1.8389,-1.8388,0,0,0,0,0,0,-1.8462,-1.8456,-1.8457,-1.845,-1.8445,-1.844,-1.8436,-1.8436,-1.843,-1.8431,-1.8429,-1.8427,-1.8417,-1.8414,-1.842,-1.8402,-1.8407,-1.8405,-1.8404,-1.8403,-1.8401,-1.8402,-1.8423,0,0,0,0,0,-1.8461,-1.8456,-1.8451,-1.8445,-1.8443,-1.8439,-1.8436,-1.8435,-1.843,-1.8428,-1.8424,-1.8419,-1.8411,-1.8407,-1.8401,-1.839,-1.8387,-1.8384,-1.8383,-1.8382,-1.838,-1.8371,-1.8369,-1.8391,-1.8391,-1.8391,0,0,-1.8459,-1.8455,-1.8452,-1.8445,-1.8441,-1.8434,-1.8438,-1.8432,-1.8426,-1.8427,-1.8418,-1.8414,-1.8408,-1.8397,-1.8392,-1.8394,-1.8374,-1.8381,-1.838,-1.8379,-1.837,-1.8368,-1.8366,-1.8391,-1.8391,-1.8391,0,0,-1.8451,-1.8449,-1.8443,-1.8438,-1.8432,-1.843,-1.8428,-1.8422,-1.842,-1.841,-1.841,-1.8403,-1.8391,-1.8386,-1.8381,-1.8368,-1.8368,-1.8366,-1.8359,-1.8351,-1.8349,-1.8347,-1.834,-1.8338,-1.8365,-1.8365,-1.8365,0,-1.8449,-1.8441,-1.8439,-1.8432,-1.8428,-1.8427,-1.842,-1.8415,-1.8407,-1.8404,-1.8406,-1.839,-1.8385,-1.8372,-1.8368,-1.8365,-1.8361,-1.8367,-1.8349,-1.8348,-1.8346,-1.834,-1.8337,-1.8364,-1.8364,-1.8364,-1.8364,0,-1.8437,-1.8431,-1.8426,-1.8418,-1.8413,-1.8406,-1.8401,-1.8396,-1.8395,-1.8391,-1.8379,-1.8374,-1.8365,-1.8362,-1.8361,-1.8347,-1.8348,-1.835,-1.8355,-1.8344,-1.8337,-1.8335,-1.8364,-1.8364,-1.8364,-1.8364,0,0,-1.8432,-1.842,-1.8418,-1.8413,-1.8405,-1.84,-1.8391,-1.8382,-1.8376,-1.837,-1.8361,-1.835,-1.835,-1.8345,-1.8343,-1.8336,-1.8323,-1.8338,-1.8338,-1.8334,-1.8304,-1.8302,-1.8299,-1.8322,-1.8322,-1.8322,-1.8304,0,-1.8422,-1.8408,-1.8405,-1.8391,-1.8384,-1.8382,-1.8373,-1.8367,-1.8362,-1.8354,-1.8349,-1.834,-1.8343,-1.8339,-1.8332,-1.8326,-1.8316,-1.8327,-1.8313,-1.8312,-1.8314,-1.8296,-1.8295,-1.8278,-1.8301,-1.8301,-1.8301,0,-1.8411,-1.8403,-1.8389,-1.8379,-1.8375,-1.8368,-1.8358,-1.8351,-1.8342,-1.8339,-1.8331,-1.8329,-1.8318,-1.8323,-1.8306,-1.8313,-1.8306,-1.8302,-1.8302,-1.83,-1.8306,-1.8292,-1.8273,-1.827,-1.8297,-1.8298,-1.8298,0,-1.8406,-1.8392,-1.8381,-1.8377,-1.8365,-1.836,-1.8354,-1.8346,-1.8339,-1.833,-1.8325,-1.8314,-1.8308,-1.8299,-1.8293,-1.8298,-1.8275,-1.8281,-1.8271,-1.8271,-1.8267,-1.8267,-1.8245,-1.8264,-1.8264,-1.8264,-1.8264,0,-1.8396,-1.8386,-1.8378,-1.8371,-1.836,-1.8355,-1.8343,-1.8338,-1.8329,-1.832,-1.8318,-1.8308,-1.8302,-1.8291,-1.8286,-1.8271,-1.8269,-1.8265,-1.8264,-1.8265,-1.8265,-1.826,-1.8261,-1.8264,-1.8264,-1.8264,-1.8264,0,-1.8389,-1.8383,-1.837,-1.8359,-1.8356,-1.8348,-1.8338,-1.833,-1.8324,-1.8312,-1.8309,-1.83,-1.8287,-1.828,-1.8264,-1.8261,-1.8243,-1.8243,-1.8247,-1.8246,-1.8236,-1.8236,-1.8209,-1.8204,-1.8228,-1.8228,-1.8228,0,-1.8382,-1.8375,-1.8363,-1.8356,-1.8351,-1.834,-1.8333,-1.8327,-1.8319,-1.8306,-1.8299,-1.8286,-1.8275,-1.8254,-1.8245,-1.8232,-1.8231,-1.8222,-1.8229,-1.8229,-1.8229,-1.8229,-1.8227,-1.8221,-1.8221,-1.8221,-1.822,0,-1.8371,-1.8368,-1.8358,-1.8346,-1.8338,-1.8328,-1.8319,-1.8313,-1.8305,-1.8296,-1.8282,-1.8274,-1.8256,-1.8242,-1.8227,-1.822,-1.8218,-1.8218,-1.8215,-1.8216,-1.8217,-1.8214,-1.8242,-1.8219,-1.8219,-1.8219,-1.8219,-1.8219,-1.8364,-1.8356,-1.8345,-1.8333,-1.8325,-1.8315,-1.8306,-1.8299,-1.8287,-1.8273,-1.8269,-1.8254,-1.8242,-1.8222,-1.8214,-1.8201,-1.8202,-1.8198,-1.8197,-1.8196,-1.8194,-1.8219,-1.8198,-1.8198,-1.8198,-1.8198,-1.8198,0,-1.8351,-1.8343,-1.8332,-1.8318,-1.8308,-1.8307,-1.8295,-1.8286,-1.8273,-1.8262,-1.825,-1.8233,-1.8218,-1.8207,-1.8192,-1.8183,-1.8181,-1.8179,-1.8179,-1.8177,-1.8195,-1.8198,-1.818,-1.818,-1.818,-1.818,-1.818,-1.818,-1.8344,-1.8329,-1.8324,-1.8305,-1.8297,-1.8282,-1.8275,-1.8265,-1.8255,-1.8236,-1.8224,-1.8216,-1.8204,-1.8187,-1.8173,-1.817,-1.8163,-1.8161,-1.8157,-1.8174,-1.8176,-1.8178,-1.8181,-1.816,-1.816,-1.814,-1.814,-1.814]}]]